Vorticity
3 10 7 5 3 8 2 11 8 10 10 10 8 6 7 6 6 8 7 6 7 6
3 4 5 9 2 12 15 10 6 9 7 9 10 9 8 8 9 6 7 6 6 6
9 7 5 5 3 3 4 2 3 13 5 7 7 9 11 10 9 7 8 11 9 6
3 5 8 7 5 5 4 9 11 14 4 8 7 6 6 6 9 6 9 10 10 9
4 5 3 4 5 7 6 6 8 11 -1 9 7 6 6 6 6 6 5 6 6 7
11 7 5 5 5 4 4 6 4 6 8 1 5 6 6 4 5 7 6 5 5 5
3 6 7 8 9 5 8 6 4 5 6 4 5 7 8 6 5 18 6 6 6 3
14 5 3 9 14 11 15 8 5 5 5 3 3 6 7 7 9 6 -0 7 6 7
26 -12 12 15 14 9 14 12 17 3 5 10 2 5 5 5 4 6 5 5 7 7
26 16 31 7 8 6 12 -26 -15 2 22 12 13 11 6 1 4 1 3 1 -3 3
29 22 27 -2 28 3 7 -18 -3 6 5 -4 9 -5 6 17 5 5 3 4 6 9
16 12 12 -13 1 27 2 6 4 5 4 -5 9 11 9 32 11 11 10 15 6 10
16 -0 20 12 -2 12 22 19 11 6 3 20 6 10 2 5 4 11 8 5 23 10
-4 18 14 26 5 14 29 19 8 12 17 15 -3 1 7 19 9 -3 6 9 8 9
Height
5934 5934 5936 5936 5936 5935 5936 5936 5938 5938 5938 5937 5939 5938 5939 5941 5942 5943 5945 5945 5944 5943
5931 5933 5934 5934 5935 5935 5936 5936 5937 5938 5938 5937 5938 5939 5937 5939 5942 5943 5944 5944 5944 5943
5931 5932 5933 5933 5933 5935 5937 5937 5936 5935 5936 5937 5937 5938 5939 5938 5938 5940 5941 5943 5942 5942
5928 5930 5932 5932 5931 5931 5932 5933 5933 5933 5934 5935 5936 5936 5937 5938 5938 5938 5938 5940 5941 5941
5925 5926 5927 5928 5928 5929 5929 5929 5929 5930 5932 5933 5934 5934 5934 5935 5936 5937 5936 5937 5938 5939
5920 5921 5922 5922 5924 5925 5926 5926 5925 5927 5929 5930 5930 5930 5930 5930 5931 5933 5933 5933 5935 5936
5916 5916 5917 5918 5919 5919 5922 5922 5923 5924 5926 5926 5926 5927 5927 5927 5928 5927 5928 5929 5928 5929
5908 5911 5912 5914 5914 5914 5915 5917 5919 5920 5922 5922 5922 5923 5923 5922 5923 5924 5924 5924 5924 5925
5899 5903 5904 5907 5909 5910 5910 5911 5912 5914 5914 5916 5917 5918 5919 5918 5918 5918 5919 5918 5919 5919
5892 5893 5895 5898 5900 5904 5904 5904 5906 5906 5906 5907 5909 5911 5911 5912 5912 5912 5913 5913 5913 5914
5886 5886 5885 5890 5891 5895 5897 5896 5898 5899 5899 5898 5902 5903 5903 5903 5905 5907 5909 5909 5907 5906
5877 5878 5881 5883 5884 5885 5886 5888 5890 5891 5892 5894 5895 5895 5895 5895 5897 5899 5900 5902 5900 5899
5870 5872 5874 5875 5876 5876 5876 5876 5878 5881 5885 5886 5883 5887 5888 5889 5890 5891 5892 5893 5893 5892
5860 5862 5863 5864 5864 5864 5864 5866 5870 5874 5876 5877 5877 5879 5879 5880 5881 5882 5882 5882 5883 5884